#timestamp,LO_Frequency,Hit,StdDev 
1672596015.6,286047001.1,N
1672596035.5,286046999.5,N
1672596055.3,286046997.8,N
1672596075.1,286046997.3,N
1672596095.9,286046997.8,N
1672596115.7,286046996.8,N
1672596135.5,286046997.1,N
1672596155.4,286046997.7,N
1672596175.2,286046999.4,N
1672596195.0,286046999.5,N
1672596195.9,286046999.5,N
1672596215.8,286047000.7,N
1672596235.6,286046999.4,N
1672596255.4,286046998.7,N
1672596275.3,286046997.4,N
1672596295.1,286046997.9,N
1672596296.0,286046997.9,N
1672596315.8,286046997.0,N
1672596335.7,286046997.3,N
1672596355.5,286046995.6,Y
1672596375.3,286046997.5,P
1672596395.2,286046993.5,P
1672596415.9,286046993.9,N
1672596435.7,286046995.8,N
1672596455.6,286046995.9,N
1672596475.4,286046997.7,N
1672596495.2,286046997.8,N
1672596515.1,286046995.1,N
1672596516.0,286046995.1,N
1672596535.8,286046997.6,N
1672596555.6,286046996.1,N
1672596575.5,286046994.1,Y
1672596595.3,286046997.5,P
1672596615.1,286046997.6,P
1672596635.9,286046995.7,P
1672596655.7,286046996.4,Y
1672596675.5,286046999.2,P
1672596695.4,286046998.7,N
1672596715.2,286046999.6,N
1672596735.0,286046996.7,Y
1672596735.9,286046996.7,P
1672596755.8,286046999.0,N
1672596775.6,286047000.3,N
1672596795.4,286047000.7,N
1672596815.3,286047000.5,N
1672596835.1,286047002.8,N
1672596855.8,286047000.1,N
1672596875.7,286047000.8,N
1672596895.5,286046999.3,N
1672596915.3,286046996.5,N
1672596935.2,286046996.9,N
1672596955.0,286046999.4,N
1672596955.9,286046999.4,N
1672596975.7,286046998.6,N
1672596995.6,286047000.8,N
1672597015.4,286047001.2,N
1672597035.2,286046996.6,N
1672597055.1,286046999.3,N
1672597056.0,286046999.3,N
1672597075.8,286046997.1,N
1672597095.6,286046997.6,N
1672597115.5,286046995.2,N
1672597135.3,286046993.9,Y
1672597155.1,286046993.7,P
1672597175.9,286046993.3,N
1672597195.7,286046993.3,N
1672597215.5,286046996.0,N
1672597235.4,286046995.5,N
1672597255.2,286046995.2,N
1672597275.0,286046997.8,N
1672597275.9,286046997.8,N
1672597295.8,286046997.5,N
1672597315.6,286046995.3,N
1672597335.4,286046995.4,N
1672597355.3,286046994.9,N
1672597375.1,286046995.0,N
1672597395.8,286046995.6,N
1672597415.7,286046995.7,N
1672597435.5,286046995.6,N
1672597455.3,286046996.3,N
1672597475.2,286046995.5,Y
1672597495.0,286046998.1,P
1672597495.9,286046998.1,N
1672597515.8,286046999.7,N
1672597535.6,286046999.7,N
1672597555.4,286046999.7,N
1672597575.2,286047000.0,N
1672597595.1,286046998.5,N
1672597596.0,286046998.5,N
1672597615.8,286046998.4,N
1672597635.7,286047000.5,N
1672597655.5,286047000.9,N
1672597675.3,286047000.9,N
1672597695.1,286047000.7,N
1672597715.9,286047001.0,N
1672597735.7,286047000.5,N
1672597755.5,286047000.6,N
1672597775.4,286046999.3,N
1672597795.2,286046996.9,N
1672597815.0,286046996.7,N
1672597816.0,286046996.7,N
1672597835.8,286046997.5,N
1672597855.6,286046995.2,Y
1672597875.5,286046996.8,P
1672597895.3,286046996.8,N
1672597915.1,286046998.1,N
1672597935.9,286046998.7,N
1672597955.7,286046996.8,Y
1672597975.5,286047000.5,P
1672597995.4,286047001.1,N
1672598015.2,286046998.2,N
1672598035.0,286046999.1,N
1672598035.9,286046999.1,N
1672598055.8,286046998.4,N
1672598075.6,286047001.2,N
1672598095.4,286046998.9,N
1672598115.3,286046999.1,N
1672598135.1,286046998.2,N
1672598136.0,286046998.2,N
1672598155.8,286046998.6,N
1672598175.7,286046999.5,N
1672598195.5,286046998.5,N
1672598215.3,286046998.4,N
1672598235.2,286046999.4,N
1672598255.9,286046999.4,N
1672598275.7,286046999.6,N
1672598295.6,286046999.4,N
1672598315.4,286046999.3,N
1672598335.2,286046996.5,Y
1672598355.1,286046998.6,P
1672598356.0,286046998.6,P
1672598375.8,286047001.1,P
1672598395.6,286047002.7,N
1672598415.5,286047002.2,N
1672598435.3,286047000.5,N
1672598455.1,286046998.4,N
1672598475.9,286047001.2,N
1672598495.7,286046998.9,N
1672598515.5,286046999.3,N
1672598535.4,286046996.7,N
1672598555.2,286046997.8,N
1672598575.0,286046997.3,N
1672598575.9,286046997.3,N
1672598595.8,286046999.6,N
1672598615.6,286047001.1,N
1672598635.4,286047000.8,N
1672598655.3,286047000.3,N
1672598675.1,286047001.2,N
1672598676.0,286047001.2,N
1672598695.8,286047000.3,N
1672598715.7,286047000.3,N
1672598735.5,286046999.2,N
1672598755.3,286046998.6,N
1672598775.2,286046998.1,N
1672598795.9,286046998.7,N
1672598815.7,286046998.5,N
1672598835.6,286046998.5,N
1672598855.4,286047000.7,N
1672598875.2,286046998.6,N
1672598895.1,286047000.9,N
1672598896.0,286047000.9,N
1672598915.8,286047002.4,N
1672598935.6,286047002.4,N
1672598955.5,286047004.4,N
1672598975.3,286047002.1,N
1672598995.1,286047001.4,N
1672599015.9,286047001.4,N
1672599035.7,286047005.9,Y
1672599055.5,286047003.0,P
1672599075.4,286047003.8,N
1672599095.2,286047004.2,N
1672599115.0,286047002.5,N
1672599115.9,286047002.5,N
1672599135.8,286047001.6,N
1672599155.6,286047001.9,N
1672599175.4,286047002.8,N
1672599195.3,286047001.5,N
1672599215.1,286047001.7,N
1672599235.8,286047002.6,N
1672599255.7,286047002.8,N
1672599275.5,286047000.7,N
1672599295.3,286047002.4,N
1672599315.2,286047001.5,N
1672599335.0,286047001.8,N
1672599335.9,286047001.8,N
1672599355.7,286047003.6,Y
1672599375.6,286047002.2,P
1672599395.4,286047000.6,P
1672599415.2,286047000.1,N
1672599435.1,286047000.9,N
1672599436.0,286047000.9,N
1672599455.8,286046999.9,N
1672599475.7,286047003.9,Y
1672599495.5,286047001.9,P
1672599515.3,286047002.8,P
1672599535.1,286047000.9,N
1672599555.9,286046999.9,N
1672599575.7,286047000.0,N
1672599595.6,286047001.0,N
